Flag for U.S.A. Weather past 2 weeks in Rochester, New York, U.S.A.

Now
40 °F

Mostly cloudy.


Feels Like: 38 °F
Forecast: 36 / 62 °F
Wind: 3 mph from East

Location: Greater Rochester International Airport


UV Index: 0 (Low)

Visibility: 10 mi


Pressure: 30.01 "Hg

Humidity: 60%

Dew point: 27 °F

Location of RochesterLocation

Historic Weather in Rochester

°F

Rochester temperature yesterday

Maximum temperature yesterday: 53 °F (at 4:54 PM)
Minimum temperature yesterday: 33 °F (at 4:54 AM)
Average temperature yesterday: 43 °F

Past Weeks' High & Low Weather Summary

 TemperatureHumidityPressure
High82 °F (Apr 13, 3:54 PM)97% (Apr 15, 1:54 AM)30.64 "Hg (Apr 15, 1:54 AM)
Low25 °F (Apr 16, 2:54 AM)14% (Apr 20, 3:54 PM)29.55 "Hg (Apr 22, 10:04 AM)
Average49 °F57%30.06 "Hg
* Reported Apr 10 2:54 AM — Apr 25 2:54 AM, Rochester, Weather by CustomWeather, © 2014

Note: Actual official high and low records may vary slightly from our data, if they occured in-between our weather recording intervals... More about our weather records

Advertising

Historic Weather Conditions — Data for Previous 24 hours

 ConditionsComfort  
Time TempWeatherWind HumidityBarometerVisibility
2:54 AM
Apr 25
40 °FMostly cloudy.3 mph60%30.01 "Hg10 mi
1:54 AM39 °FPassing clouds.No wind60%30.03 "Hg10 mi
12:54 AM38 °FPassing clouds.No wind70%30.05 "Hg10 mi
11:54 PM
Apr 24
39 °FPassing clouds.No wind67%30.05 "Hg10 mi
10:54 PM42 °FClear.No wind57%30.07 "Hg10 mi
9:54 PM42 °FClear.No wind49%30.09 "Hg10 mi
8:54 PM45 °FPassing clouds.No wind45%30.09 "Hg10 mi
7:54 PM50 °FPassing clouds.6 mph27%30.09 "Hg10 mi
6:54 PM52 °FPassing clouds.9 mph24%30.09 "Hg10 mi
5:54 PM53 °FPassing clouds.12 mph24%30.09 "Hg10 mi
4:54 PM53 °FPassing clouds.9 mph24%30.09 "Hg10 mi
3:54 PM52 °FPassing clouds.12 mph25%30.10 "Hg10 mi
2:54 PM52 °FPassing clouds.15 mph27%30.12 "Hg10 mi
1:54 PM50 °FPassing clouds.12 mph29%30.13 "Hg10 mi
12:54 PM49 °FPassing clouds.12 mph31%30.14 "Hg10 mi
11:54 AM47 °FScattered clouds.14 mph32%30.15 "Hg10 mi
10:54 AM45 °FPassing clouds.14 mph33%30.16 "Hg10 mi
9:54 AM44 °FPassing clouds.15 mph38%30.16 "Hg10 mi
8:54 AM41 °FPassing clouds.13 mph49%30.15 "Hg10 mi
7:54 AM38 °FScattered clouds.9 mph55%30.15 "Hg10 mi
6:54 AM33 °FClear.7 mph63%30.13 "Hg10 mi
5:54 AM33 °FClear.7 mph63%30.10 "Hg10 mi
4:54 AM33 °FClear.6 mph66%30.08 "Hg10 mi
Weather by CustomWeather, © 2014

See weather overview